Weather reports worldwide

Advertisment
Troy, al, United States of America (2074928): temperature & dewpoint: 08.08.2020 03:00:00 - 14.08.2020 03:00:00 (CDT)Troy, al, United States of America (2074928): wind speed & gusts: 08.08.2020 03:00:00 - 14.08.2020 03:00:00 (CDT)Troy, al, United States of America (2074928): wind direction: 08.08.2020 03:00:00 - 14.08.2020 03:00:00 (CDT)Troy, al, United States of America (2074928): reduced air pressure: 08.08.2020 03:00:00 - 14.08.2020 03:00:00 (CDT)Troy, al, United States of America (2074928): visibility: 08.08.2020 03:00:00 - 14.08.2020 03:00:00 (CDT)Troy, al, United States of America (2074928): precipitation: 08.08.2020 03:00:00 - 14.08.2020 03:00:00 (CDT)
Date & Time tt [°C] td [°C] ff [km/h] ff [kn] fx [km/h] fx [kn] dd ppp [hPa] vv [km] rr [mm]
14.08.2020 03:00:00 23,9 22,2 5 3 - - SSW 1014,3 13 -
14.08.2020 02:00:00 23,9 22,2 5 3 - - WSW 1014,9 16 -
14.08.2020 01:00:00 23,9 22,2 0 0 - - N 1015,0 16 -
14.08.2020 00:00:00 23,9 22,2 5 3 - - S 1015,0 16 -
13.08.2020 23:00:00 24,4 22,2 0 0 - - N 1015,2 16 -
13.08.2020 22:00:00 25,0 22,2 0 0 - - N 1014,7 13 -
13.08.2020 21:00:00 25,6 21,7 0 0 - - N 1015,0 16 0,0
13.08.2020 20:00:00 26,7 22,2 21 11 - - SW 1014,9 16 0,0
13.08.2020 19:00:00 28,3 22,8 9 5 - - S 1013,6 16 -
13.08.2020 18:00:00 32,2 23,9 8 4 - - S 1013,0 16 -
13.08.2020 17:00:00 33,9 21,7 8 4 - - SSE 1012,9 16 -
13.08.2020 16:00:00 34,4 21,7 9 5 - - WSW 1013,1 16 -
13.08.2020 15:00:00 33,3 22,2 9 5 - - SW 1013,6 16 -
13.08.2020 14:00:00 33,9 22,8 0 0 - - N 1014,6 16 -
13.08.2020 13:00:00 32,8 23,3 5 3 - - SSW 1016,0 16 -
13.08.2020 12:00:00 31,7 22,8 5 3 - - - 1016,9 16 -
13.08.2020 11:00:00 30,6 23,9 0 0 - - N 1017,2 16 -
13.08.2020 10:00:00 28,9 22,8 0 0 - - N 1017,3 16 -
13.08.2020 09:00:00 26,7 22,8 5 3 - - ESE 1017,3 16 -
13.08.2020 08:00:00 25,0 22,2 0 0 - - N 1017,2 16 -
13.08.2020 07:00:00 23,3 21,7 0 0 - - N 1016,9 13 -
13.08.2020 06:00:00 23,3 21,1 0 0 - - N 1016,6 16 -
13.08.2020 05:00:00 22,8 21,1 5 3 - - E 1015,9 8 -
13.08.2020 04:00:00 23,3 21,7 0 0 - - N 1015,5 15 -
13.08.2020 03:00:00 23,3 21,7 0 0 - - N 1015,6 16 -
13.08.2020 02:00:00 23,9 22,2 0 0 - - N 1015,1 16 0,0
13.08.2020 01:00:00 23,9 22,2 9 5 - - ESE 1015,1 16 0,8
13.08.2020 00:00:00 23,9 22,2 0 0 - - N 1015,9 16 2,3
12.08.2020 23:00:00 23,9 22,2 11 6 - - WSW 1015,9 8 0,5
12.08.2020 22:00:00 24,4 22,2 9 5 - - S 1017,1 16 0,0
12.08.2020 21:00:00 26,7 22,2 21 11 - - ENE 1016,4 16 -
12.08.2020 20:00:00 28,9 23,3 0 0 - - N 1015,1 16 -
12.08.2020 19:00:00 32,2 22,8 0 0 - - N 1014,6 16 -
12.08.2020 18:00:00 33,9 21,7 8 4 - - W 1014,3 16 -
12.08.2020 17:00:00 33,9 22,2 8 4 - - WSW 1013,7 16 -
12.08.2020 16:00:00 35,0 18,3 9 5 - - SW 1013,8 16 -
12.08.2020 15:00:00 34,4 21,7 8 4 - - - 1014,5 16 -
12.08.2020 14:00:00 33,3 22,2 5 3 - - - 1015,3 16 -
12.08.2020 13:00:00 33,3 22,2 9 5 - - NW 1016,5 16 -
12.08.2020 12:00:00 32,2 23,9 9 5 - - W 1017,1 16 -
12.08.2020 11:00:00 31,1 22,8 5 3 - - ENE 1017,4 16 -
12.08.2020 10:00:00 28,3 22,8 5 3 - - - 1017,6 16 -
12.08.2020 09:00:00 26,1 21,7 5 3 - - NW 1017,6 16 -
12.08.2020 08:00:00 23,9 21,1 5 3 - - S 1017,4 16 -
12.08.2020 07:00:00 22,2 20,6 0 0 - - N 1017,0 16 -
12.08.2020 06:00:00 21,1 19,4 0 0 - - N 1015,9 15 -
12.08.2020 05:00:00 21,7 20,0 0 0 - - N 1015,2 11 -
12.08.2020 04:00:00 21,7 20,6 0 0 - - N 1015,6 13 -
12.08.2020 03:00:00 21,7 20,6 0 0 - - N 1016,0 8 -
12.08.2020 02:00:00 22,8 20,6 0 0 - - N 1016,3 16 -
12.08.2020 01:00:00 22,8 21,1 0 0 - - N 1016,0 16 -
12.08.2020 00:00:00 22,8 21,1 0 0 - - N 1016,7 16 -
11.08.2020 23:00:00 23,3 21,1 8 4 - - SW 1016,7 16 -
11.08.2020 22:00:00 23,3 21,7 8 4 - - SW 1016,9 16 -
11.08.2020 21:00:00 23,9 22,2 11 6 - - SSW 1016,4 16 0,0
11.08.2020 20:00:00 23,3 22,2 9 5 - - SSE 1015,9 16 0,3
11.08.2020 19:00:00 23,9 21,7 5 3 - - SSE 1015,7 16 1,0
11.08.2020 18:00:00 23,9 21,7 8 4 - - ESE 1014,8 16 0,3
11.08.2020 17:00:00 23,9 22,2 0 0 - - N 1016,0 16 0,0
11.08.2020 16:00:00 23,9 21,1 21 11 50 27 N 1017,1 6 2,8
11.08.2020 15:00:00 25,6 22,2 18 10 - - SW 1014,4 3,2 3,8
11.08.2020 14:00:00 32,2 25,6 18 10 - - E 1014,8 16 0,0
11.08.2020 13:00:00 28,9 26,1 9 5 - - SSE 1015,7 13 1,0
11.08.2020 12:00:00 35,0 23,3 15 8 - - N 1016,5 16 -
11.08.2020 11:00:00 32,8 25,0 0 0 - - N 1016,9 16 -
11.08.2020 10:00:00 31,1 24,4 0 0 - - N 1017,1 16 -
11.08.2020 09:00:00 28,3 24,4 0 0 - - N 1017,1 16 -
11.08.2020 08:00:00 25,0 22,8 5 3 - - S 1016,9 15 -
11.08.2020 07:00:00 23,9 22,2 0 0 - - N 1016,5 15 -
11.08.2020 06:00:00 23,3 21,7 0 0 - - N 1016,3 16 -
11.08.2020 05:00:00 22,8 21,7 0 0 - - N 1015,9 15 -
11.08.2020 04:00:00 22,8 21,1 0 0 - - N 1015,7 16 -
11.08.2020 03:00:00 22,2 20,6 0 0 - - N 1015,9 16 -
11.08.2020 02:00:00 22,2 20,6 0 0 - - N 1016,3 16 -
11.08.2020 01:00:00 22,8 20,6 5 3 - - SW 1016,6 16 -
11.08.2020 00:00:00 22,8 21,1 5 3 - - SSW 1017,2 16 -
10.08.2020 23:00:00 23,3 22,2 5 3 - - E 1017,4 16 0,0
10.08.2020 22:00:00 23,9 22,8 9 5 - - ESE 1017,5 16 0,0
10.08.2020 21:00:00 25,0 23,3 13 7 - - ENE 1017,9 16 0,0
10.08.2020 20:00:00 23,9 22,8 16 9 70 38 SW 1016,6 16 0,0
10.08.2020 19:00:00 28,9 22,2 11 6 - - SSE 1015,6 16 0,0
10.08.2020 18:00:00 29,4 22,8 9 5 - - SSE 1015,3 16 0,0
10.08.2020 17:00:00 32,2 22,2 13 7 - - SSE 1015,4 16 -
10.08.2020 16:00:00 36,1 20,0 0 0 - - N 1015,3 16 -
10.08.2020 15:00:00 34,4 21,7 11 6 - - NW 1016,4 16 -
10.08.2020 14:00:00 35,6 21,7 11 6 - - SSW 1017,4 16 -
10.08.2020 13:00:00 35,6 22,8 0 0 - - N 1018,4 16 -
10.08.2020 12:00:00 33,3 22,2 11 6 - - NW 1019,2 16 -
10.08.2020 11:00:00 33,9 23,3 8 4 - - NNW 1019,4 16 -
10.08.2020 10:00:00 31,7 23,3 9 5 - - - 1019,5 16 -
10.08.2020 09:00:00 29,4 23,3 0 0 - - N 1019,5 16 -
10.08.2020 08:00:00 26,7 23,3 0 0 - - N 1019,3 16 -
10.08.2020 07:00:00 24,4 22,8 0 0 - - N 1018,9 8 -
10.08.2020 06:00:00 23,9 22,2 0 0 - - N 1018,8 8 -
10.08.2020 05:00:00 24,4 22,8 0 0 - - N 1018,4 15 -
10.08.2020 04:00:00 24,4 22,2 0 0 - - N 1018,7 16 -
10.08.2020 03:00:00 25,0 22,8 0 0 - - N 1018,7 16 -
10.08.2020 02:00:00 25,0 22,8 0 0 - - N 1019,0 16 -
10.08.2020 01:00:00 25,6 22,8 0 0 - - N 1019,1 16 -
10.08.2020 00:00:00 26,1 22,8 0 0 - - N 1019,4 16 -
09.08.2020 23:00:00 26,7 22,8 0 0 - - N 1019,7 16 -
09.08.2020 22:00:00 26,7 22,8 5 3 - - SSW 1019,6 16 -
09.08.2020 21:00:00 27,8 22,2 0 0 - - N 1019,3 16 -
09.08.2020 20:00:00 28,3 23,3 0 0 - - N 1018,8 16 -
09.08.2020 19:00:00 31,7 22,2 0 0 - - N 1017,8 16 -
09.08.2020 18:00:00 31,7 21,1 5 3 - - ENE 1017,5 16 -
09.08.2020 17:00:00 31,1 21,1 0 0 - - N 1017,9 16 -
09.08.2020 16:00:00 30,0 21,7 16 9 - - NNW 1018,3 16 -
09.08.2020 15:00:00 35,0 20,6 16 9 - - N 1018,6 16 -
09.08.2020 14:00:00 35,6 21,1 13 7 - - NNE 1019,2 16 -
09.08.2020 13:00:00 35,0 20,6 0 0 - - N 1020,0 16 -
09.08.2020 12:00:00 33,9 21,7 11 6 - - SE 1020,8 16 -
09.08.2020 11:00:00 32,2 22,8 0 0 - - N 1021,3 16 -
09.08.2020 10:00:00 31,1 22,8 0 0 - - N 1021,3 16 -
09.08.2020 09:00:00 29,4 23,9 8 4 - - - 1021,4 16 -
09.08.2020 08:00:00 26,1 22,8 0 0 - - N 1021,3 16 -
09.08.2020 07:00:00 23,9 22,2 0 0 - - N 1020,8 10 -
09.08.2020 06:00:00 22,8 21,1 0 0 - - N 1020,4 10 -
09.08.2020 05:00:00 23,3 21,1 0 0 - - N 1020,2 8 -
09.08.2020 04:00:00 23,9 21,7 0 0 - - N 1020,2 15 -
09.08.2020 03:00:00 23,3 21,1 0 0 - - N 1020,2 15 -
09.08.2020 02:00:00 23,3 21,7 0 0 - - N 1020,4 13 -
09.08.2020 01:00:00 23,9 21,7 0 0 - - N 1020,5 16 -
09.08.2020 00:00:00 25,0 22,2 0 0 - - N 1020,6 16 -
08.08.2020 23:00:00 25,6 22,8 0 0 - - N 1020,3 16 -
08.08.2020 22:00:00 26,1 23,3 0 0 - - N 1020,1 16 -
08.08.2020 21:00:00 26,1 23,3 0 0 - - N 1019,6 16 -
08.08.2020 20:00:00 27,2 22,8 5 3 - - SW 1019,2 16 -
08.08.2020 19:00:00 27,8 22,8 8 4 - - SSE 1019,3 16 -
08.08.2020 18:00:00 29,4 23,3 11 6 - - SE 1019,2 16 0,3
08.08.2020 17:00:00 31,1 21,7 9 5 - - SE 1018,6 16 -
08.08.2020 16:00:00 35,0 19,4 5 3 - - W 1018,5 16 -
08.08.2020 15:00:00 35,6 18,9 9 5 - - W 1018,9 16 -
08.08.2020 14:00:00 35,6 18,9 0 0 - - N 1019,5 16 -
08.08.2020 13:00:00 34,4 20,6 8 4 - - - 1020,2 16 -
08.08.2020 12:00:00 33,9 20,6 9 5 - - - 1020,5 16 -
08.08.2020 11:00:00 32,2 21,7 0 0 - - N 1020,9 16 -
08.08.2020 10:00:00 31,1 22,2 0 0 - - N 1020,8 16 -
08.08.2020 09:00:00 28,3 23,3 0 0 - - N 1020,7 16 -
08.08.2020 08:00:00 25,6 22,8 5 3 - - SSW 1020,6 11 -
08.08.2020 07:00:00 23,3 21,7 0 0 - - N 1020,0 6 -
08.08.2020 06:00:00 22,8 21,1 0 0 - - N 1019,5 3,2 -
08.08.2020 05:00:00 22,8 21,1 0 0 - - N 1019,2 10 -
08.08.2020 04:00:00 23,3 21,7 0 0 - - N 1018,9 11 -
08.08.2020 03:00:00 23,9 21,7 0 0 - - N 1018,7 16 -

tt = temperature
td = dewpoint
ff = wind speed
fx = gusts
dd = wind direction
ppp = reduced air pressure
vv = visibility
rr = precipitation

Next stations